Torna al catalogo

HULIANWANG DIGUI-64

AttivoComunicazioniPO
NORAD 65170·PAYLOAD·🇨🇳 China

Lanciato Aug 13, 2025 da Wenchang Space Launch Site

Loading…

Prossimi Passaggi (prossime 24 ore)

TLE

AggiornatoSource: Space-Track

Epoca: Sep 14, 2026, 21:53 UTC

1 65170U 25174G   26257.91240724  .00000042  00000-0  63706-4 0  9991
2 65170  86.4932 221.5761 0002310  77.9883 282.1510 13.24399915 52669

Traccia HULIANWANG DIGUI-64 in tempo reale con AllMySat

Download on the App Store